Find Starlink 4502

NORAD ID: 53557 Int'l Des: 2022-101 Owner: SPXS Country: US Constellation: starlink operational
LEOCIRCULAR

リアルタイム位置

3D地球を読み込み中...

Starlink 4502について

説明を読み込み中...

次回通過

Passes for default location (London). Set your location on the main map for personalized predictions.

高度履歴

Loading altitude history...

軌道要素

1 53557U 22101AG 26125.49668950 .00000561 00000-0 53305-4 0 9996
2 53557 53.2171 169.1062 0001193 82.9082 277.2046 15.08837208205539
Epoch: May 5, 2026 • Age: 14 hours

現在のステータス

高度 556.7 km
速度 7.58 km/s
衛星直下点 -47.32°S, 150.43°E
打ち上げ日 Aug 19, 2022
運用期間 3.7 years
タイプ internet

技術仕様

分類 Payload
質量 300.00 kg
乾燥質量 290.00 kg
総質量 300.00 kg
長さ 0.20 m
直径 2.80 m
スパン 9.00 m
形状 Box + pan
製造者 SPXS
バスタイプ Starlink
フェーズステータス In Orbit
所有者/国 SPXS/US

Most Searched